Location: Seven Kings
(51.5667°N, 0.1000°E)
Time: 12:43:48
(UTC+00:00)

X-37B - Visible Passes

Search period start: 18 June 2021 00:00
Search period end: 28 June 2021 00:00
Orbit: 386 x 389 km, 45.0° (Epoch: 10 June)

Date Brightness Start Highest point End Pass type
(mag) Time Alt. Az. Time Alt. Az. Time Alt. Az.
18 Jun 2.7 00:48:20 15° SE 00:48:20 15° SE 00:49:18 10° ESE visible
18 Jun 1.8 02:20:36 11° WSW 02:23:04 25° S 02:25:44 10° SE visible
19 Jun 1.7 01:24:37 24° S 01:24:52 24° S 01:27:32 10° ESE visible
20 Jun 2.9 00:28:46 13° ESE 00:28:46 13° ESE 00:29:15 10° ESE visible
20 Jun 1.8 02:01:04 15° SW 02:02:47 23° S 02:05:22 10° SE visible
21 Jun 2.1 01:05:32 21° SSE 01:05:32 21° SSE 01:07:16 10° SE visible
21 Jun 2.3 02:38:39 10° WSW 02:40:38 15° SSW 02:42:36 10° SSE visible
22 Jun 2.1 01:43:04 19° S 01:43:04 19° S 01:44:52 10° SE visible
23 Jun 2.0 22:07:44 10° SSW 22:10:03 19° SSE 22:10:08 19° SSE visible
24 Jun 2.4 21:10:05 10° SSW 21:11:56 15° SSE 21:13:47 10° ESE visible
24 Jun 1.8 22:45:16 10° SW 22:47:29 24° S 22:47:29 24° S visible
25 Jun 1.9 21:47:11 10° SW 21:49:45 22° S 21:51:53 12° ESE visible
25 Jun 2.6 23:23:15 10° WSW 23:24:10 15° SW 23:24:10 15° SW visible
26 Jun 1.7 22:24:59 10° WSW 22:27:39 25° S 22:28:18 23° SSE visible
27 Jun 1.8 21:26:48 10° SW 21:29:28 25° S 21:32:08 10° ESE visible
27 Jun 2.5 23:03:10 10° WSW 23:04:33 17° SW 23:04:33 17° SW visible
